Regional Weather Roundup
Issued by NWS

Home | Current Version | Previous Version | Text Only | Print | Product List | Glossary On
Versions: 1 2 3 4 5 6 7 8 9 10 11 12 13 14 15 16 17 18 19 20 21 22 23 24 25 26 27 28 29 30 31 32 33 34 35 36 37 38 39 40 41 42 43 44 45 46 47 48 49 50
345
ASUS43 KTOP 060259
RWRKS

WEATHER ROUNDUP FOR KANSAS
NATIONAL WEATHER SERVICE GOODLAND KS
900 PM CST MON DEC 05 2016

NOTE:  "FAIR" INDICATES FEW OR NO CLOUDS BELOW 12,000 FEET WITH NO
SIGNIFICANT WEATHER AND/OR OBSTRUCTIONS TO VISIBILITY.

KSZ001>006-013>018-027>032-041>047-060400-
NORTHWEST KANSAS

CITY           SKY/WX    TMP DP  RH WIND       PRES   REMARKS
GOODLAND       MOCLDY    30  14  51 N23G30    29.87R WCI  17
HAYS           CLEAR     45  27  49 NW21G28   29.73R
HILL CITY      CLOUDY    38  27  64 N23G39    29.85R WCI  27
RUSSELL        PTCLDY    34  30  85 NW8       29.71R
$$

KSZ061>065-074>080-084>089-060400-
SOUTHWEST KANSAS

CITY           SKY/WX    TMP DP  RH WIND       PRES   REMARKS
DODGE CITY     CLEAR     39  31  72 N16       29.74R WCI  30
ELKHART          N/A     43  16  33 N23         N/A
GARDEN CITY    CLEAR     39  13  34 N28G38    29.77R WCI  28
GREAT BEND     CLEAR     32  30  92 W8        29.73R
LIBERAL        CLEAR     45  28  53 N28G36    29.72R
$$

KSZ066>073-081>083-090>101-060400-
SOUTHEAST KANSAS

CITY           SKY/WX    TMP DP  RH WIND       PRES   REMARKS
CHANUTE        CLOUDY    32  31  96 S3        29.74R
COFFEYVILLE    CLEAR     33  33 100 CALM      29.75R FOG
HUTCHINSON     CLEAR     37  34  89 S3        29.71R
MEDICINE LODGE   N/A     38  36  92 E6        29.71R
NEWTON         CLEAR     37  34  89 S7        29.71R
PARSONS        CLOUDY    32  31  96 N5        29.76R
WICHITA INTL   CLEAR     37  35  92 S5        29.71R
WICHITA JABRA  CLEAR     36  35  96 S6        29.71R
WINFIELD       CLEAR     38  36  92 SE5       29.73R
$$

KSZ007>012-019>026-033>040-048>060-102>105-060400-
NORTHEAST KANSAS

CITY           SKY/WX    TMP DP  RH WIND       PRES   REMARKS
CONCORDIA      CLEAR     38  33  82 NW10      29.73R WCI  31
EMPORIA        CLEAR     34  34 100 S8        29.72R FOG
LAWRENCE       CLEAR     33  31  92 E5        29.74S
MANHATTAN      CLEAR     38  33  82 CALM      29.72R
OLATHE IND     CLEAR     35  31  85 SE3       29.74R
OLATHE EXE     CLEAR     37  32  82 S6        29.74R
SALINA         CLEAR     36  31  82 CALM      29.71R
TOPEKA BILLARD CLEAR     36  32  85 NE6       29.74R
TOPEKA FORBES  CLEAR     36  32  85 CALM      29.72S
$$




USA.gov is the U.S. government's official web portal to all federal, state and local government web resources and services.